星链-2645 (STARLINK-2645 )

导读 | 豆包AI

STARLINK-2645是美国SpaceX星链(Starlink)项目的低轨通信卫星,属于Starlink V1.5批次,于北京时间2021年5月9日发射入轨。它质量约295公斤,采用紧凑平板设计,配备激光星间链路,可实现星间直接通信,为全球用户提供高速宽带互联网服务,属于星链一期组网卫星,助力构建全球覆盖低轨卫星通信网络。

基本信息
目录编号:
48444
目录名称:
STARLINK-2645
国际标识:
2021-040S
轨道中心:
EARTH
卫星名称:
星链-2645
卫星全名:
星链-2645 (STARLINK-2645 )
卫星状态:
在轨 (已飞行1770 天)
发射日期:
2021-05-09 UTC
国别 :
美国 (US)
星等 :
--
轨道信息
数据来源 国际轨道数据 AOE轨道数据
星历时间 2026-03-14T06:55:45+0800
17小时前
查看轨道信息
2026-03-09T07:00:00+0800
5天前
查看轨道信息
半长轴 6853.363km 6853.41km
偏心率 0.0001272 0.0001463
轨道倾角 53.161° 53.156°
近地点辐角 90.074° 63.823°
升交点赤经 158.315° 181.525°
平近点角 270.041° 113.665°
近地点 474.354km 474.27km
远地点 476.098km 476.276km
周期 94.106分钟 94.107分钟
每日圈数 15.301965 15.301806
详细信息
固有亮度:
5
最大亮度:
2.5
卫星平台:
Starlink V1.0
覆盖范围:
全球
运营商:
太空探索技术公司
运营商所在国:
美国
制造商(研发单位):
太空探索技术公司
制造商所在国:
美国
使用方式:
暂无
卫星简介
星链(Starlink)计划是由太空探索技术公司(SpaceX)提出的一个巨型低轨卫星互联网星座项目,计划在2019年至2024年间在太空搭建由约1.2万颗卫星组成的“星链”网络,其中1584颗将部署在地球上空550千米处的近地轨道,并从2020年开始工作。该卫星仍在工作。
2D轨道图
3D轨道图
轨道高度分析图
轨道倾角分析图
轨道综合分析图
查看轨道综合分析图